Weather in Sofiysk

Russia / Khabarovsk Krai     52°15′19″N   133°59′24″E
temp.,
°C
wind,
m/s
gust,
m/s
humid.,
%
clouds,
%
prec.,
mm/h
press.,
hPa
HPBL,
m
27 february, sat
sat2701:00−26ene0010093 0.0 103320
04:00−26e1110084 0.0 103220
07:00−26e119929 0.0 103120
10:00−20ese009358 0.0 102943
13:00−13sse137198 0.0 1025460
16:00−12sse129299 0.3 1020359
19:00−13e3595100 0.9 1017213
22:00−13sse1297100 2.0 101455
28 february, sun
sun2801:00−14ssw1397100 1.1 1012148
04:00−16wsw1298100 1.9 101231
07:00−19ssw12100100 0.4 101420
10:00−18wsw5994100 0.6 1015680
13:00−18w6787100 0.2 10171148
16:00−19w5685100 0.3 10191128
19:00−23wsw51094100 0.1 1023447
22:00−30wsw2299100 0.1 102519
1 march, mon
mon101:00−32sw1199100 0.0 102719
04:00−32n00100100 0.1 102919
07:00−34ssw01100100 0.1 103019
10:00−31sw1199100 0.1 1030181
13:00−28w3589100 0.0 1029827
16:00−26w4784100 0.1 10281192
19:00−30wnw3691100 0.0 1030159
22:00−35wnw1196100 0.0 103219
2 march, tue
tue201:00−37wnw0110099 0.0 103219
04:00−38ne00100100 0.1 103319
07:00−38sse00100100 0.0 103419
10:00−34wsw01100100 0.1 1032136
13:00−28wnw2691100 0.0 1030579
16:00−25wnw4782100 0.1 10291155
19:00−30w1294100 0.0 103019
22:00−33e1110079 0.0 103219
3 march, wed
wed301:00−33ene12100100 0.0 103119
04:00−30e1197100 0.1 102919
07:00−28e1297100 0.1 102727
10:00−23ese1295100 0.3 1023185
13:00−18sw2790100 0.3 1018899
16:00−16sw4992100 0.8 1014998
19:00−18sw1398100 0.7 1013126
22:00−20ssw0199100 1.2 101220